Time,TemperatureF,DewpointF,PressureIn,WindDirection,WindDirectionDegrees,WindSpeedMPH,WindSpeedGustMPH,Humidity,HourlyPrecipIn,Conditions,Clouds,dailyrainin,SoftwareType,DateUTC
2013-02-05 00:00:00,21.9,5.0,29.66,WSW,257,0.0,0.0,47,0.00,,,0.00,WXlink_for_OpenVMS,2013-02-05 05:00:00,
2013-02-05 00:05:00,21.9,5.0,29.66,SW,234,0.0,0.0,47,0.00,,,0.00,WXlink_for_OpenVMS,2013-02-05 05:05:00,
2013-02-05 00:11:00,21.9,5.0,29.66,WSW,247,0.0,0.0,47,0.00,,,0.00,WXlink_for_OpenVMS,2013-02-05 05:11:00,
2013-02-05 00:15:00,21.9,5.0,29.66,SW,234,0.0,0.0,48,0.00,,,0.00,WXlink_for_OpenVMS,2013-02-05 05:15:00,
2013-02-05 00:25:00,21.9,5.0,29.66,SW,233,0.0,0.0,48,0.00,,,0.00,WXlink_for_OpenVMS,2013-02-05 05:25:00,
2013-02-05 00:31:00,22.1,5.0,29.66,SW,234,0.0,0.0,48,0.00,,,0.00,WXlink_for_OpenVMS,2013-02-05 05:31:00,
2013-02-05 00:40:00,22.3,6.0,29.66,SW,233,0.0,0.0,48,0.00,,,0.00,WXlink_for_OpenVMS,2013-02-05 05:40:00,
2013-02-05 00:45:00,22.5,6.0,29.66,SW,233,0.0,0.0,48,0.00,,,0.00,WXlink_for_OpenVMS,2013-02-05 05:45:00,
2013-02-05 00:50:00,22.5,6.0,29.66,SW,233,0.0,0.0,48,0.00,,,0.00,WXlink_for_OpenVMS,2013-02-05 05:50:00,
2013-02-05 00:55:00,22.6,6.0,29.66,SW,233,0.0,0.0,48,0.00,,,0.00,WXlink_for_OpenVMS,2013-02-05 05:55:00,
2013-02-05 01:00:00,22.8,6.0,29.66,WSW,243,0.0,0.0,48,0.00,,,0.00,WXlink_for_OpenVMS,2013-02-05 06:00:00,
2013-02-05 01:05:00,22.8,6.0,29.66,WSW,244,0.0,0.0,48,0.00,,,0.00,WXlink_for_OpenVMS,2013-02-05 06:05:00,
2013-02-05 01:15:00,22.8,6.0,29.66,SSW,203,2.2,3.6,48,0.00,,,0.00,WXlink_for_OpenVMS,2013-02-05 06:15:00,
2013-02-05 01:20:00,23.0,7.0,29.66,SW,231,2.7,2.7,49,0.00,,,0.00,WXlink_for_OpenVMS,2013-02-05 06:20:00,
2013-02-05 01:25:00,23.0,7.0,29.66,WSW,252,2.7,2.7,49,0.00,,,0.00,WXlink_for_OpenVMS,2013-02-05 06:25:00,
2013-02-05 01:30:00,22.8,7.0,29.66,SW,226,0.0,0.0,49,0.00,,,0.00,WXlink_for_OpenVMS,2013-02-05 06:30:00,
2013-02-05 01:35:00,23.0,7.0,29.66,SW,225,0.0,0.0,49,0.00,,,0.00,WXlink_for_OpenVMS,2013-02-05 06:35:00,
2013-02-05 01:40:00,23.0,7.0,29.66,SW,225,0.0,0.0,49,0.00,,,0.00,WXlink_for_OpenVMS,2013-02-05 06:40:00,
2013-02-05 01:45:00,23.2,7.0,29.69,SW,233,0.0,0.0,49,0.00,,,0.00,WXlink_for_OpenVMS,2013-02-05 06:45:00,
2013-02-05 01:50:00,23.2,7.0,29.69,SW,233,0.0,2.2,49,0.00,,,0.00,WXlink_for_OpenVMS,2013-02-05 06:50:00,
2013-02-05 01:55:00,23.2,7.0,29.69,SW,229,0.0,0.0,49,0.00,,,0.00,WXlink_for_OpenVMS,2013-02-05 06:55:00,
2013-02-05 02:00:00,23.4,7.0,29.69,SW,215,0.0,0.0,49,0.00,,,0.00,WXlink_for_OpenVMS,2013-02-05 07:00:00,
2013-02-05 02:05:00,23.4,7.0,29.69,SW,223,2.2,3.1,49,0.00,,,0.00,WXlink_for_OpenVMS,2013-02-05 07:05:00,
2013-02-05 02:15:00,23.4,7.0,29.69,SW,225,0.0,0.0,49,0.00,,,0.00,WXlink_for_OpenVMS,2013-02-05 07:15:00,
2013-02-05 02:20:00,23.4,7.0,29.69,SW,218,0.0,0.0,49,0.00,,,0.00,WXlink_for_OpenVMS,2013-02-05 07:20:00,
2013-02-05 02:25:00,23.4,7.0,29.69,SW,228,3.6,3.6,50,0.00,,,0.00,WXlink_for_OpenVMS,2013-02-05 07:25:00,
2013-02-05 02:30:00,23.4,7.0,29.66,SW,228,0.0,0.0,50,0.00,,,0.00,WXlink_for_OpenVMS,2013-02-05 07:30:00,
2013-02-05 02:35:00,23.4,7.0,29.66,SSW,201,0.0,0.0,49,0.00,,,0.00,WXlink_for_OpenVMS,2013-02-05 07:35:00,
2013-02-05 02:40:00,23.4,7.0,29.66,SSW,202,0.0,0.0,50,0.00,,,0.00,WXlink_for_OpenVMS,2013-02-05 07:40:00,
2013-02-05 02:45:00,23.2,7.0,29.66,WSW,248,0.0,4.0,50,0.00,,,0.00,WXlink_for_OpenVMS,2013-02-05 07:45:00,
2013-02-05 02:50:00,23.2,7.0,29.66,SW,221,0.0,0.0,50,0.00,,,0.00,WXlink_for_OpenVMS,2013-02-05 07:50:00,
2013-02-05 02:55:00,23.2,7.0,29.66,SW,221,0.0,0.0,50,0.00,,,0.00,WXlink_for_OpenVMS,2013-02-05 07:55:00,
2013-02-05 03:00:00,23.2,7.0,29.66,WSW,247,0.0,0.0,50,0.00,,,0.00,WXlink_for_OpenVMS,2013-02-05 08:00:00,
2013-02-05 03:05:00,23.2,7.0,29.66,SSW,207,0.0,0.0,50,0.00,,,0.00,WXlink_for_OpenVMS,2013-02-05 08:05:00,
2013-02-05 03:10:00,23.2,7.0,29.66,SW,219,0.0,0.0,50,0.00,,,0.00,WXlink_for_OpenVMS,2013-02-05 08:10:00,
2013-02-05 03:15:00,23.2,7.0,29.69,SW,230,0.0,0.0,50,0.00,,,0.00,WXlink_for_OpenVMS,2013-02-05 08:15:00,
2013-02-05 03:25:00,23.2,7.0,29.69,SW,217,3.1,4.0,50,0.00,,,0.00,WXlink_for_OpenVMS,2013-02-05 08:25:00,
2013-02-05 03:30:00,23.4,7.0,29.69,SW,231,0.0,0.0,50,0.00,,,0.00,WXlink_for_OpenVMS,2013-02-05 08:30:00,
2013-02-05 03:35:00,23.2,7.0,29.69,SW,231,0.0,0.0,50,0.00,,,0.00,WXlink_for_OpenVMS,2013-02-05 08:35:00,
2013-02-05 03:40:00,23.2,7.0,29.69,SW,234,2.7,2.7,50,0.00,,,0.00,WXlink_for_OpenVMS,2013-02-05 08:40:00,
2013-02-05 03:45:00,23.2,7.0,29.66,SW,234,0.0,0.0,50,0.00,,,0.00,WXlink_for_OpenVMS,2013-02-05 08:45:00,
2013-02-05 03:50:00,23.2,7.0,29.66,SW,234,0.0,0.0,50,0.00,,,0.00,WXlink_for_OpenVMS,2013-02-05 08:50:00,
2013-02-05 03:55:00,23.2,7.0,29.66,SW,223,0.0,0.0,50,0.00,,,0.00,WXlink_for_OpenVMS,2013-02-05 08:55:00,
2013-02-05 04:00:00,23.2,7.0,29.66,SW,223,0.0,0.0,50,0.00,,,0.00,WXlink_for_OpenVMS,2013-02-05 09:00:00,
2013-02-05 04:05:00,23.4,7.0,29.66,SW,223,0.0,0.0,50,0.00,,,0.00,WXlink_for_OpenVMS,2013-02-05 09:05:00,
2013-02-05 04:10:00,23.4,7.0,29.66,SW,223,0.0,0.0,50,0.00,,,0.00,WXlink_for_OpenVMS,2013-02-05 09:10:00,
2013-02-05 04:15:00,23.4,7.0,29.66,SW,222,0.0,0.0,50,0.00,,,0.00,WXlink_for_OpenVMS,2013-02-05 09:15:00,
2013-02-05 04:20:00,23.4,7.0,29.66,SW,223,0.0,0.0,50,0.00,,,0.00,WXlink_for_OpenVMS,2013-02-05 09:20:00,
2013-02-05 04:25:00,23.4,8.0,29.66,SW,223,0.0,0.0,51,0.00,,,0.00,WXlink_for_OpenVMS,2013-02-05 09:25:00,
2013-02-05 04:30:00,23.4,8.0,29.66,SW,222,0.0,0.0,51,0.00,,,0.00,WXlink_for_OpenVMS,2013-02-05 09:30:00,
2013-02-05 04:35:00,23.4,8.0,29.66,SW,223,0.0,0.0,51,0.00,,,0.00,WXlink_for_OpenVMS,2013-02-05 09:35:00,
2013-02-05 04:40:00,23.2,8.0,29.66,SW,223,0.0,0.0,51,0.00,,,0.00,WXlink_for_OpenVMS,2013-02-05 09:40:00,
2013-02-05 04:45:00,23.0,8.0,29.69,SW,223,0.0,0.0,51,0.00,,,0.00,WXlink_for_OpenVMS,2013-02-05 09:45:00,
2013-02-05 04:50:00,23.0,8.0,29.69,SW,223,0.0,0.0,51,0.00,,,0.00,WXlink_for_OpenVMS,2013-02-05 09:50:00,
2013-02-05 04:55:00,23.0,8.0,29.69,SW,223,0.0,0.0,51,0.00,,,0.00,WXlink_for_OpenVMS,2013-02-05 09:55:00,
2013-02-05 05:00:00,22.8,7.0,29.69,SW,222,0.0,0.0,51,0.00,,,0.00,WXlink_for_OpenVMS,2013-02-05 10:00:00,
2013-02-05 05:05:00,22.5,7.0,29.69,SW,223,0.0,0.0,51,0.00,,,0.00,WXlink_for_OpenVMS,2013-02-05 10:05:00,
2013-02-05 05:10:00,22.8,7.0,29.69,SW,223,0.0,0.0,51,0.00,,,0.00,WXlink_for_OpenVMS,2013-02-05 10:10:00,
2013-02-05 05:15:00,23.2,8.0,29.69,SW,223,0.0,0.0,51,0.00,,,0.00,WXlink_for_OpenVMS,2013-02-05 10:15:00,
2013-02-05 05:25:00,23.2,8.0,29.69,SW,223,0.0,0.0,52,0.00,,,0.00,WXlink_for_OpenVMS,2013-02-05 10:25:00,
2013-02-05 05:30:00,23.0,8.0,29.69,SW,223,0.0,0.0,52,0.00,,,0.00,WXlink_for_OpenVMS,2013-02-05 10:30:00,
2013-02-05 05:35:00,22.8,8.0,29.69,SW,223,0.0,0.0,52,0.00,,,0.00,WXlink_for_OpenVMS,2013-02-05 10:35:00,
2013-02-05 05:40:00,22.8,8.0,29.69,SW,223,0.0,0.0,52,0.00,,,0.00,WXlink_for_OpenVMS,2013-02-05 10:40:00,
2013-02-05 05:45:00,23.0,8.0,29.69,SW,223,0.0,0.0,52,0.00,,,0.00,WXlink_for_OpenVMS,2013-02-05 10:45:00,
2013-02-05 05:50:00,23.2,8.0,29.69,SW,222,0.0,0.0,52,0.00,,,0.00,WXlink_for_OpenVMS,2013-02-05 10:50:00,
2013-02-05 05:55:00,23.2,9.0,29.69,SW,223,0.0,0.0,53,0.00,,,0.00,WXlink_for_OpenVMS,2013-02-05 10:55:00,
2013-02-05 06:00:00,23.2,9.0,29.69,SW,222,0.0,0.0,53,0.00,,,0.00,WXlink_for_OpenVMS,2013-02-05 11:00:00,
2013-02-05 06:05:00,23.2,9.0,29.69,SW,223,0.0,0.0,53,0.00,,,0.00,WXlink_for_OpenVMS,2013-02-05 11:05:00,
2013-02-05 06:10:00,23.2,9.0,29.69,SW,223,0.0,0.0,53,0.00,,,0.00,WXlink_for_OpenVMS,2013-02-05 11:10:00,
2013-02-05 06:15:00,23.4,9.0,29.69,SW,223,0.0,0.0,53,0.00,,,0.00,WXlink_for_OpenVMS,2013-02-05 11:15:00,
2013-02-05 06:20:00,23.4,9.0,29.69,SW,222,0.0,0.0,53,0.00,,,0.00,WXlink_for_OpenVMS,2013-02-05 11:20:00,
2013-02-05 06:25:00,23.4,9.0,29.69,SW,223,0.0,0.0,53,0.00,,,0.00,WXlink_for_OpenVMS,2013-02-05 11:25:00,
2013-02-05 06:30:00,23.5,9.0,29.69,SW,223,0.0,0.0,53,0.00,,,0.00,WXlink_for_OpenVMS,2013-02-05 11:30:00,
2013-02-05 06:35:00,23.5,9.0,29.69,SW,223,0.0,0.0,53,0.00,,,0.00,WXlink_for_OpenVMS,2013-02-05 11:35:00,
2013-02-05 06:40:00,23.5,9.0,29.69,SW,223,0.0,0.0,53,0.00,,,0.00,WXlink_for_OpenVMS,2013-02-05 11:40:00,
2013-02-05 06:45:00,23.5,9.0,29.69,SW,222,0.0,0.0,53,0.00,,,0.00,WXlink_for_OpenVMS,2013-02-05 11:45:00,
2013-02-05 06:55:00,23.7,9.0,29.69,SW,223,0.0,0.0,53,0.00,,,0.00,WXlink_for_OpenVMS,2013-02-05 11:55:00,
2013-02-05 07:00:00,23.5,9.0,29.69,SW,223,0.0,0.0,53,0.00,,,0.00,WXlink_for_OpenVMS,2013-02-05 12:00:00,
2013-02-05 07:05:00,23.5,9.0,29.69,SW,223,0.0,0.0,53,0.00,,,0.00,WXlink_for_OpenVMS,2013-02-05 12:05:00,
2013-02-05 07:10:00,23.5,9.0,29.69,SW,222,0.0,0.0,53,0.00,,,0.00,WXlink_for_OpenVMS,2013-02-05 12:10:00,
2013-02-05 07:15:00,23.4,9.0,29.69,SW,221,0.0,0.0,53,0.00,,,0.00,WXlink_for_OpenVMS,2013-02-05 12:15:00,
2013-02-05 07:20:00,23.4,9.0,29.69,SW,222,0.0,0.0,53,0.00,,,0.00,WXlink_for_OpenVMS,2013-02-05 12:20:00,
2013-02-05 07:25:00,23.5,9.0,29.69,SW,222,0.0,0.0,53,0.00,,,0.00,WXlink_for_OpenVMS,2013-02-05 12:25:00,
2013-02-05 07:30:00,23.5,9.0,29.72,SW,223,0.0,0.0,53,0.00,,,0.00,WXlink_for_OpenVMS,2013-02-05 12:30:00,
2013-02-05 07:35:00,23.5,9.0,29.72,SW,223,0.0,0.0,53,0.00,,,0.00,WXlink_for_OpenVMS,2013-02-05 12:35:00,
2013-02-05 07:40:00,23.7,9.0,29.72,SW,223,0.0,0.0,53,0.00,,,0.00,WXlink_for_OpenVMS,2013-02-05 12:40:00,
2013-02-05 07:45:00,23.7,9.0,29.72,SW,222,0.0,0.0,53,0.00,,,0.00,WXlink_for_OpenVMS,2013-02-05 12:45:00,
2013-02-05 07:55:00,23.7,9.0,29.72,West,267,0.0,0.0,54,0.00,,,0.00,WXlink_for_OpenVMS,2013-02-05 12:55:00,
2013-02-05 08:00:00,23.9,10.0,29.72,West,267,0.0,0.0,54,0.00,,,0.00,WXlink_for_OpenVMS,2013-02-05 13:00:00,
2013-02-05 08:05:00,24.1,10.0,29.72,West,267,0.0,0.0,54,0.00,,,0.00,WXlink_for_OpenVMS,2013-02-05 13:05:00,
2013-02-05 08:10:00,24.3,10.0,29.72,West,267,0.0,0.0,54,0.00,,,0.00,WXlink_for_OpenVMS,2013-02-05 13:10:00,
2013-02-05 08:15:00,24.3,10.0,29.72,West,267,0.0,0.0,54,0.00,,,0.00,WXlink_for_OpenVMS,2013-02-05 13:15:00,
2013-02-05 08:20:00,24.4,10.0,29.72,West,267,0.0,0.0,54,0.00,,,0.00,WXlink_for_OpenVMS,2013-02-05 13:20:00,
2013-02-05 08:25:00,24.4,10.0,29.72,West,267,0.0,0.0,53,0.00,,,0.00,WXlink_for_OpenVMS,2013-02-05 13:25:00,
2013-02-05 08:35:00,24.8,10.0,29.72,West,267,0.0,0.0,53,0.00,,,0.00,WXlink_for_OpenVMS,2013-02-05 13:35:00,
2013-02-05 08:40:00,24.8,10.0,29.72,West,267,0.0,0.0,53,0.00,,,0.00,WXlink_for_OpenVMS,2013-02-05 13:40:00,
2013-02-05 08:45:00,25.0,10.0,29.72,WNW,302,0.0,0.0,53,0.00,,,0.00,WXlink_for_OpenVMS,2013-02-05 13:45:00,
2013-02-05 08:50:00,25.3,10.0,29.72,NW,316,0.0,0.0,52,0.00,,,0.00,WXlink_for_OpenVMS,2013-02-05 13:50:00,
2013-02-05 08:55:00,25.3,10.0,29.72,NW,316,0.0,0.0,52,0.00,,,0.00,WXlink_for_OpenVMS,2013-02-05 13:55:00,
2013-02-05 09:00:00,25.5,10.0,29.72,NW,316,0.0,0.0,52,0.00,,,0.00,WXlink_for_OpenVMS,2013-02-05 14:00:00,
2013-02-05 09:05:00,25.5,10.0,29.72,NW,316,0.0,0.0,52,0.00,,,0.00,WXlink_for_OpenVMS,2013-02-05 14:05:00,
2013-02-05 09:10:00,25.5,10.0,29.72,NW,316,0.0,0.0,52,0.00,,,0.00,WXlink_for_OpenVMS,2013-02-05 14:10:00,
2013-02-05 09:15:00,25.7,10.0,29.72,NW,316,0.0,0.0,52,0.00,,,0.00,WXlink_for_OpenVMS,2013-02-05 14:15:00,
2013-02-05 09:20:00,25.7,10.0,29.72,NW,316,0.0,0.0,52,0.00,,,0.00,WXlink_for_OpenVMS,2013-02-05 14:20:00,
2013-02-05 09:25:00,25.9,11.0,29.72,South,175,0.0,0.0,52,0.00,,,0.00,WXlink_for_OpenVMS,2013-02-05 14:25:00,
2013-02-05 09:30:00,26.1,10.0,29.75,West,276,0.0,0.0,51,0.00,,,0.00,WXlink_for_OpenVMS,2013-02-05 14:30:00,
2013-02-05 09:35:00,26.2,11.0,29.75,SW,227,0.0,0.0,51,0.00,,,0.00,WXlink_for_OpenVMS,2013-02-05 14:35:00,
2013-02-05 09:40:00,26.2,11.0,29.75,NW,307,0.0,0.0,51,0.00,,,0.00,WXlink_for_OpenVMS,2013-02-05 14:40:00,
2013-02-05 09:45:00,26.2,10.0,29.75,NW,311,0.0,0.0,50,0.00,,,0.00,WXlink_for_OpenVMS,2013-02-05 14:45:00,
2013-02-05 09:50:00,26.4,10.0,29.75,WSW,246,0.0,0.0,50,0.00,,,0.00,WXlink_for_OpenVMS,2013-02-05 14:50:00,
2013-02-05 09:55:00,26.4,10.0,29.75,WSW,256,0.0,0.0,50,0.00,,,0.00,WXlink_for_OpenVMS,2013-02-05 14:55:00,
2013-02-05 10:05:00,26.6,10.0,29.75,NW,309,0.0,0.0,50,0.00,,,0.00,WXlink_for_OpenVMS,2013-02-05 15:05:00,
2013-02-05 10:10:00,26.6,10.0,29.75,SW,216,0.0,0.0,50,0.00,,,0.00,WXlink_for_OpenVMS,2013-02-05 15:10:00,
2013-02-05 10:15:00,26.8,10.0,29.75,West,260,0.0,0.0,49,0.00,,,0.00,WXlink_for_OpenVMS,2013-02-05 15:15:00,
2013-02-05 10:20:00,27.0,10.0,29.75,West,260,0.0,0.0,49,0.00,,,0.00,WXlink_for_OpenVMS,2013-02-05 15:20:00,
2013-02-05 10:25:00,27.0,10.0,29.75,West,260,0.0,0.0,49,0.00,,,0.00,WXlink_for_OpenVMS,2013-02-05 15:25:00,
2013-02-05 10:30:00,27.1,11.0,29.75,West,260,0.0,0.0,49,0.00,,,0.00,WXlink_for_OpenVMS,2013-02-05 15:30:00,
2013-02-05 10:35:00,27.3,11.0,29.75,SW,235,0.0,0.0,49,0.00,,,0.00,WXlink_for_OpenVMS,2013-02-05 15:35:00,
2013-02-05 10:40:00,27.3,11.0,29.75,WSW,249,0.0,0.0,49,0.00,,,0.00,WXlink_for_OpenVMS,2013-02-05 15:40:00,
2013-02-05 10:45:00,27.5,11.0,29.72,West,276,0.0,0.0,49,0.00,,,0.00,WXlink_for_OpenVMS,2013-02-05 15:45:00,
2013-02-05 10:50:00,27.3,10.0,29.72,WNW,303,0.0,0.0,48,0.00,,,0.00,WXlink_for_OpenVMS,2013-02-05 15:50:00,
2013-02-05 10:55:00,27.0,10.0,29.72,WNW,303,0.0,0.0,48,0.00,,,0.00,WXlink_for_OpenVMS,2013-02-05 15:55:00,
2013-02-05 11:00:00,27.1,10.0,29.72,SW,227,0.0,0.0,48,0.00,,,0.00,WXlink_for_OpenVMS,2013-02-05 16:00:00,
2013-02-05 11:05:00,27.5,10.0,29.72,WSW,247,0.0,0.0,48,0.00,,,0.00,WXlink_for_OpenVMS,2013-02-05 16:05:00,
2013-02-05 11:15:00,27.7,11.0,29.72,West,263,0.0,0.0,48,0.00,,,0.00,WXlink_for_OpenVMS,2013-02-05 16:15:00,
2013-02-05 11:20:00,27.9,10.0,29.72,West,262,0.0,0.0,47,0.00,,,0.00,WXlink_for_OpenVMS,2013-02-05 16:20:00,
2013-02-05 11:25:00,28.4,11.0,29.72,SSW,204,0.0,0.0,47,0.00,,,0.00,WXlink_for_OpenVMS,2013-02-05 16:25:00,
2013-02-05 11:30:00,28.6,11.0,29.72,South,170,0.0,0.0,47,0.00,,,0.00,WXlink_for_OpenVMS,2013-02-05 16:30:00,
2013-02-05 11:35:00,28.4,11.0,29.72,WSW,252,0.0,0.0,47,0.00,,,0.00,WXlink_for_OpenVMS,2013-02-05 16:35:00,
2013-02-05 11:40:00,28.4,11.0,29.72,SSW,193,0.0,0.0,47,0.00,,,0.00,WXlink_for_OpenVMS,2013-02-05 16:40:00,
2013-02-05 11:45:00,28.8,11.0,29.72,SW,226,0.0,0.0,47,0.00,,,0.00,WXlink_for_OpenVMS,2013-02-05 16:45:00,
2013-02-05 11:51:00,29.1,11.0,29.72,SE,130,0.0,0.0,46,0.00,,,0.00,WXlink_for_OpenVMS,2013-02-05 16:51:00,
2013-02-05 12:00:00,29.3,11.0,29.72,SE,130,0.0,0.0,46,0.00,,,0.00,WXlink_for_OpenVMS,2013-02-05 17:00:00,
2013-02-05 12:05:00,29.5,11.0,29.72,SE,130,0.0,0.0,46,0.00,,,0.00,WXlink_for_OpenVMS,2013-02-05 17:05:00,
2013-02-05 12:10:00,29.7,11.0,29.72,SE,130,0.0,0.0,46,0.00,,,0.00,WXlink_for_OpenVMS,2013-02-05 17:10:00,
2013-02-05 12:15:00,30.0,12.0,29.69,SW,231,0.0,0.0,46,0.00,,,0.00,WXlink_for_OpenVMS,2013-02-05 17:15:00,
2013-02-05 12:20:00,30.2,12.0,29.69,SSW,203,0.0,0.0,46,0.00,,,0.00,WXlink_for_OpenVMS,2013-02-05 17:20:00,
2013-02-05 12:25:00,30.0,12.0,29.69,SW,229,0.0,0.0,46,0.00,,,0.00,WXlink_for_OpenVMS,2013-02-05 17:25:00,
2013-02-05 12:30:00,30.0,11.0,29.69,WNW,302,0.0,0.0,45,0.00,,,0.00,WXlink_for_OpenVMS,2013-02-05 17:30:00,
2013-02-05 12:35:00,29.3,11.0,29.69,NW,304,0.0,0.0,45,0.00,,,0.00,WXlink_for_OpenVMS,2013-02-05 17:35:00,
2013-02-05 12:40:00,28.8,10.0,29.69,NW,304,0.0,0.0,45,0.00,,,0.00,WXlink_for_OpenVMS,2013-02-05 17:40:00,
2013-02-05 12:45:00,29.1,10.0,29.69,SW,226,3.6,3.6,45,0.00,,,0.00,WXlink_for_OpenVMS,2013-02-05 17:45:00,
2013-02-05 12:50:00,29.3,11.0,29.69,West,281,0.0,0.0,45,0.00,,,0.00,WXlink_for_OpenVMS,2013-02-05 17:50:00,
2013-02-05 12:55:00,29.5,11.0,29.69,West,281,0.0,0.0,45,0.00,,,0.00,WXlink_for_OpenVMS,2013-02-05 17:55:00,
2013-02-05 13:00:00,29.7,11.0,29.69,South,182,0.0,0.0,45,0.00,,,0.00,WXlink_for_OpenVMS,2013-02-05 18:00:00,
2013-02-05 13:05:00,29.7,11.0,29.69,SSE,164,0.0,0.0,45,0.00,,,0.00,WXlink_for_OpenVMS,2013-02-05 18:05:00,
2013-02-05 13:15:00,29.1,10.0,29.69,SSE,164,0.0,0.0,45,0.00,,,0.00,WXlink_for_OpenVMS,2013-02-05 18:15:00,
2013-02-05 13:20:00,28.9,10.0,29.69,SSE,164,0.0,0.0,45,0.00,,,0.00,WXlink_for_OpenVMS,2013-02-05 18:20:00,
2013-02-05 13:25:00,29.3,11.0,29.69,SSE,164,0.0,0.0,45,0.00,,,0.00,WXlink_for_OpenVMS,2013-02-05 18:25:00,
2013-02-05 13:30:00,29.7,11.0,29.69,SSE,164,0.0,0.0,45,0.00,,,0.00,WXlink_for_OpenVMS,2013-02-05 18:30:00,
2013-02-05 13:36:00,30.2,11.0,29.69,SSE,164,0.0,0.0,45,0.00,,,0.00,WXlink_for_OpenVMS,2013-02-05 18:36:00,
2013-02-05 13:45:00,29.5,11.0,29.69,ESE,123,0.0,0.0,45,0.00,,,0.00,WXlink_for_OpenVMS,2013-02-05 18:45:00,
2013-02-05 13:50:00,29.7,11.0,29.69,East,86,0.0,3.1,45,0.00,,,0.00,WXlink_for_OpenVMS,2013-02-05 18:50:00,
2013-02-05 14:00:00,29.7,11.0,29.69,ENE,60,0.0,0.0,45,0.00,,,0.00,WXlink_for_OpenVMS,2013-02-05 19:00:00,
2013-02-05 14:06:00,30.2,11.0,29.69,ENE,60,0.0,0.0,45,0.00,,,0.00,WXlink_for_OpenVMS,2013-02-05 19:06:00,
2013-02-05 14:15:00,29.7,11.0,29.69,ENE,62,0.0,0.0,45,0.00,,,0.00,WXlink_for_OpenVMS,2013-02-05 19:15:00,
2013-02-05 14:20:00,29.8,11.0,29.69,East,92,0.0,0.0,45,0.00,,,0.00,WXlink_for_OpenVMS,2013-02-05 19:20:00,
2013-02-05 14:25:00,30.2,11.0,29.69,East,92,0.0,0.0,45,0.00,,,0.00,WXlink_for_OpenVMS,2013-02-05 19:25:00,
2013-02-05 14:30:00,30.2,11.0,29.69,ESE,102,0.0,0.0,45,0.00,,,0.00,WXlink_for_OpenVMS,2013-02-05 19:30:00,
2013-02-05 14:36:00,30.4,12.0,29.69,SSE,162,0.0,0.0,45,0.00,,,0.00,WXlink_for_OpenVMS,2013-02-05 19:36:00,
2013-02-05 14:45:00,30.7,12.0,29.69,SSE,162,0.0,0.0,45,0.00,,,0.00,WXlink_for_OpenVMS,2013-02-05 19:45:00,
2013-02-05 14:50:00,31.1,12.0,29.69,SSE,162,0.0,0.0,45,0.00,,,0.00,WXlink_for_OpenVMS,2013-02-05 19:50:00,
2013-02-05 14:55:00,31.1,12.0,29.69,SSE,162,0.0,0.0,45,0.00,,,0.00,WXlink_for_OpenVMS,2013-02-05 19:55:00,
2013-02-05 15:00:00,30.9,12.0,29.69,SSE,153,0.0,0.0,45,0.00,,,0.00,WXlink_for_OpenVMS,2013-02-05 20:00:00,
2013-02-05 15:05:00,30.9,12.0,29.69,SSE,153,0.0,0.0,45,0.00,,,0.00,WXlink_for_OpenVMS,2013-02-05 20:05:00,
2013-02-05 15:10:00,31.1,12.0,29.69,SSE,153,0.0,0.0,45,0.00,,,0.00,WXlink_for_OpenVMS,2013-02-05 20:10:00,
2013-02-05 15:15:00,30.9,12.0,29.66,SSE,153,0.0,0.0,45,0.00,,,0.00,WXlink_for_OpenVMS,2013-02-05 20:15:00,
2013-02-05 15:20:00,31.1,12.0,29.66,SSE,153,0.0,0.0,45,0.00,,,0.00,WXlink_for_OpenVMS,2013-02-05 20:20:00,
2013-02-05 15:25:00,31.1,12.0,29.66,SW,232,0.0,0.0,45,0.00,,,0.00,WXlink_for_OpenVMS,2013-02-05 20:25:00,
2013-02-05 15:30:00,30.9,12.0,29.66,SW,232,0.0,0.0,45,0.00,,,0.00,WXlink_for_OpenVMS,2013-02-05 20:30:00,
2013-02-05 15:35:00,30.4,12.0,29.66,SW,232,0.0,0.0,45,0.00,,,0.00,WXlink_for_OpenVMS,2013-02-05 20:35:00,
2013-02-05 15:40:00,30.2,11.0,29.66,SW,232,0.0,0.0,45,0.00,,,0.00,WXlink_for_OpenVMS,2013-02-05 20:40:00,
2013-02-05 15:45:00,30.2,11.0,29.66,SW,232,0.0,0.0,45,0.00,,,0.00,WXlink_for_OpenVMS,2013-02-05 20:45:00,
2013-02-05 15:55:00,30.6,12.0,29.66,SE,130,0.0,0.0,46,0.00,,,0.00,WXlink_for_OpenVMS,2013-02-05 20:55:00,
2013-02-05 16:00:00,30.2,12.0,29.66,WSW,243,0.0,0.0,46,0.00,,,0.00,WXlink_for_OpenVMS,2013-02-05 21:00:00,
2013-02-05 16:05:00,30.0,12.0,29.66,SSE,156,0.0,0.0,46,0.00,,,0.00,WXlink_for_OpenVMS,2013-02-05 21:05:00,
2013-02-05 16:11:00,29.7,11.0,29.66,SSE,156,0.0,0.0,46,0.00,,,0.00,WXlink_for_OpenVMS,2013-02-05 21:11:00,
2013-02-05 16:20:00,29.3,11.0,29.66,SSE,156,0.0,0.0,46,0.00,,,0.00,WXlink_for_OpenVMS,2013-02-05 21:20:00,
2013-02-05 16:25:00,29.1,11.0,29.66,SSE,156,0.0,0.0,46,0.00,,,0.00,WXlink_for_OpenVMS,2013-02-05 21:25:00,
2013-02-05 16:31:00,29.3,11.0,29.66,SSE,156,0.0,0.0,46,0.00,,,0.00,WXlink_for_OpenVMS,2013-02-05 21:31:00,
2013-02-05 16:36:00,29.3,11.0,29.66,SSE,156,0.0,0.0,46,0.00,,,0.00,WXlink_for_OpenVMS,2013-02-05 21:36:00,
2013-02-05 16:45:00,29.3,12.0,29.66,SSE,156,0.0,0.0,47,0.00,,,0.00,WXlink_for_OpenVMS,2013-02-05 21:45:00,
2013-02-05 16:55:00,29.3,12.0,29.66,SSE,156,0.0,0.0,47,0.00,,,0.00,WXlink_for_OpenVMS,2013-02-05 21:55:00,
2013-02-05 17:00:00,29.3,12.0,29.66,SSE,156,0.0,0.0,47,0.00,,,0.00,WXlink_for_OpenVMS,2013-02-05 22:00:00,
2013-02-05 17:05:00,29.1,11.0,29.66,SSE,156,0.0,0.0,47,0.00,,,0.00,WXlink_for_OpenVMS,2013-02-05 22:05:00,
2013-02-05 17:10:00,28.9,12.0,29.66,SSE,156,0.0,0.0,48,0.00,,,0.00,WXlink_for_OpenVMS,2013-02-05 22:10:00,
2013-02-05 17:15:00,28.9,12.0,29.66,SSE,156,0.0,0.0,48,0.00,,,0.00,WXlink_for_OpenVMS,2013-02-05 22:15:00,
2013-02-05 17:20:00,28.9,12.0,29.66,SSE,156,0.0,0.0,48,0.00,,,0.00,WXlink_for_OpenVMS,2013-02-05 22:20:00,
2013-02-05 17:25:00,28.8,12.0,29.66,SSE,156,0.0,0.0,48,0.00,,,0.00,WXlink_for_OpenVMS,2013-02-05 22:25:00,
2013-02-05 17:31:00,28.9,12.0,29.66,SSE,156,0.0,0.0,48,0.00,,,0.00,WXlink_for_OpenVMS,2013-02-05 22:31:00,
2013-02-05 17:40:00,28.6,12.0,29.66,SSE,156,0.0,0.0,49,0.00,,,0.00,WXlink_for_OpenVMS,2013-02-05 22:40:00,
2013-02-05 17:45:00,28.6,12.0,29.66,SSE,156,0.0,0.0,49,0.00,,,0.00,WXlink_for_OpenVMS,2013-02-05 22:45:00,
2013-02-05 17:50:00,28.6,12.0,29.66,SSE,156,0.0,0.0,49,0.00,,,0.00,WXlink_for_OpenVMS,2013-02-05 22:50:00,
2013-02-05 17:56:00,28.6,12.0,29.66,SSE,158,0.0,0.0,50,0.00,,,0.00,WXlink_for_OpenVMS,2013-02-05 22:56:00,
2013-02-05 18:05:00,28.6,12.0,29.66,SSE,159,0.0,0.0,50,0.00,,,0.00,WXlink_for_OpenVMS,2013-02-05 23:05:00,
2013-02-05 18:10:00,28.6,12.0,29.66,SSE,158,0.0,0.0,50,0.00,,,0.00,WXlink_for_OpenVMS,2013-02-05 23:10:00,
2013-02-05 18:15:00,28.6,13.0,29.66,SSE,158,0.0,0.0,51,0.00,,,0.00,WXlink_for_OpenVMS,2013-02-05 23:15:00,
2013-02-05 18:20:00,28.8,13.0,29.66,SSE,158,0.0,0.0,51,0.00,,,0.00,WXlink_for_OpenVMS,2013-02-05 23:20:00,
2013-02-05 18:25:00,28.6,13.0,29.66,SSE,159,0.0,0.0,51,0.00,,,0.00,WXlink_for_OpenVMS,2013-02-05 23:25:00,
2013-02-05 18:30:00,28.6,13.0,29.66,SSE,158,0.0,0.0,51,0.00,,,0.00,WXlink_for_OpenVMS,2013-02-05 23:30:00,
2013-02-05 18:35:00,28.6,13.0,29.66,SSE,158,0.0,0.0,51,0.00,,,0.00,WXlink_for_OpenVMS,2013-02-05 23:35:00,
2013-02-05 18:40:00,28.6,13.0,29.66,SSE,158,0.0,0.0,51,0.00,,,0.00,WXlink_for_OpenVMS,2013-02-05 23:40:00,
2013-02-05 18:45:00,28.6,13.0,29.66,East,96,0.0,0.0,51,0.00,,,0.00,WXlink_for_OpenVMS,2013-02-05 23:45:00,
2013-02-05 18:50:00,28.6,13.0,29.66,ESE,104,0.0,0.0,51,0.00,,,0.00,WXlink_for_OpenVMS,2013-02-05 23:50:00,
2013-02-05 18:55:00,28.6,13.0,29.66,ESE,103,0.0,0.0,51,0.00,,,0.00,WXlink_for_OpenVMS,2013-02-05 23:55:00,
2013-02-05 19:05:00,28.6,13.0,29.66,ESE,104,0.0,0.0,51,0.00,,,0.00,WXlink_for_OpenVMS,2013-02-06 00:05:00,
2013-02-05 19:10:00,28.6,13.0,29.66,East,87,0.0,0.0,51,0.00,,,0.00,WXlink_for_OpenVMS,2013-02-06 00:10:00,
2013-02-05 19:15:00,28.6,13.0,29.66,East,87,0.0,0.0,52,0.00,,,0.00,WXlink_for_OpenVMS,2013-02-06 00:15:00,
2013-02-05 19:20:00,28.6,13.0,29.66,East,87,0.0,0.0,52,0.00,,,0.00,WXlink_for_OpenVMS,2013-02-06 00:20:00,
2013-02-05 19:25:00,28.6,13.0,29.66,East,87,0.0,0.0,52,0.00,,,0.00,WXlink_for_OpenVMS,2013-02-06 00:25:00,
2013-02-05 19:30:00,28.4,13.0,29.66,East,87,0.0,0.0,52,0.00,,,0.00,WXlink_for_OpenVMS,2013-02-06 00:30:00,
2013-02-05 19:35:00,28.4,13.0,29.66,East,87,0.0,0.0,52,0.00,,,0.00,WXlink_for_OpenVMS,2013-02-06 00:35:00,
2013-02-05 19:40:00,28.4,13.0,29.66,East,87,0.0,0.0,52,0.00,,,0.00,WXlink_for_OpenVMS,2013-02-06 00:40:00,
2013-02-05 19:45:00,28.6,13.0,29.66,East,87,0.0,0.0,52,0.00,,,0.00,WXlink_for_OpenVMS,2013-02-06 00:45:00,
2013-02-05 19:50:00,28.4,13.0,29.66,East,88,0.0,0.0,52,0.00,,,0.00,WXlink_for_OpenVMS,2013-02-06 00:50:00,
2013-02-05 20:01:00,28.6,13.0,29.66,East,88,0.0,0.0,52,0.00,,,0.00,WXlink_for_OpenVMS,2013-02-06 01:01:00,
2013-02-05 20:10:00,28.6,13.0,29.66,East,88,0.0,0.0,52,0.00,,,0.00,WXlink_for_OpenVMS,2013-02-06 01:10:00,
2013-02-05 20:16:00,28.6,14.0,29.66,East,88,0.0,0.0,53,0.00,,,0.00,WXlink_for_OpenVMS,2013-02-06 01:16:00,
2013-02-05 20:25:00,28.2,14.0,29.66,ESE,103,0.0,0.0,54,0.00,,,0.00,WXlink_for_OpenVMS,2013-02-06 01:25:00,
2013-02-05 20:35:00,28.0,14.0,29.69,ESE,103,0.0,0.0,56,0.00,,,0.00,WXlink_for_OpenVMS,2013-02-06 01:35:00,
2013-02-05 20:40:00,27.9,15.0,29.69,ESE,103,0.0,0.0,57,0.00,,,0.00,WXlink_for_OpenVMS,2013-02-06 01:40:00,
2013-02-05 20:45:00,27.5,15.0,29.69,ESE,103,0.0,0.0,58,0.00,,,0.00,WXlink_for_OpenVMS,2013-02-06 01:45:00,
2013-02-05 20:50:00,27.5,15.0,29.69,ESE,103,0.0,0.0,59,0.00,,,0.00,WXlink_for_OpenVMS,2013-02-06 01:50:00,
2013-02-05 20:55:00,27.5,15.0,29.69,ESE,103,0.0,0.0,60,0.00,,,0.00,WXlink_for_OpenVMS,2013-02-06 01:55:00,
2013-02-05 21:00:00,27.5,16.0,29.69,ESE,103,0.0,0.0,61,0.00,,,0.00,WXlink_for_OpenVMS,2013-02-06 02:00:00,
2013-02-05 21:05:00,27.5,16.0,29.69,ESE,103,0.0,0.0,62,0.00,,,0.00,WXlink_for_OpenVMS,2013-02-06 02:05:00,
2013-02-05 21:10:00,27.3,16.0,29.69,ESE,103,0.0,0.0,63,0.00,,,0.00,WXlink_for_OpenVMS,2013-02-06 02:10:00,
2013-02-05 21:15:00,27.1,17.0,29.69,ESE,103,0.0,0.0,64,0.00,,,0.00,WXlink_for_OpenVMS,2013-02-06 02:15:00,
2013-02-05 21:20:00,27.1,17.0,29.69,ESE,103,0.0,0.0,65,0.00,,,0.00,WXlink_for_OpenVMS,2013-02-06 02:20:00,
2013-02-05 21:25:00,27.0,17.0,29.69,ESE,103,0.0,0.0,66,0.00,,,0.00,WXlink_for_OpenVMS,2013-02-06 02:25:00,
2013-02-05 21:30:00,27.0,17.0,29.69,ESE,103,0.0,0.0,67,0.00,,,0.00,WXlink_for_OpenVMS,2013-02-06 02:30:00,
2013-02-05 21:35:00,27.0,18.0,29.69,ESE,103,0.0,0.0,68,0.00,,,0.00,WXlink_for_OpenVMS,2013-02-06 02:35:00,
2013-02-05 21:40:00,26.8,18.0,29.69,ESE,103,0.0,0.0,69,0.00,,,0.00,WXlink_for_OpenVMS,2013-02-06 02:40:00,
2013-02-05 21:45:00,26.8,18.0,29.69,ESE,103,0.0,0.0,69,0.00,,,0.00,WXlink_for_OpenVMS,2013-02-06 02:45:00,
2013-02-05 21:50:00,26.8,18.0,29.69,ESE,103,0.0,0.0,70,0.00,,,0.00,WXlink_for_OpenVMS,2013-02-06 02:50:00,
2013-02-05 21:56:00,26.8,18.0,29.69,ESE,103,0.0,0.0,70,0.00,,,0.00,WXlink_for_OpenVMS,2013-02-06 02:56:00,
2013-02-05 22:05:00,27.0,19.0,29.66,ESE,103,0.0,0.0,71,0.00,,,0.00,WXlink_for_OpenVMS,2013-02-06 03:05:00,
2013-02-05 22:10:00,27.0,19.0,29.66,ESE,103,0.0,0.0,71,0.00,,,0.00,WXlink_for_OpenVMS,2013-02-06 03:10:00,
2013-02-05 22:15:00,26.8,19.0,29.66,ESE,103,0.0,0.0,71,0.00,,,0.00,WXlink_for_OpenVMS,2013-02-06 03:15:00,
2013-02-05 22:20:00,26.6,19.0,29.66,ESE,103,0.0,0.0,72,0.00,,,0.00,WXlink_for_OpenVMS,2013-02-06 03:20:00,
2013-02-05 22:25:00,26.6,19.0,29.66,ESE,103,0.0,0.0,72,0.00,,,0.00,WXlink_for_OpenVMS,2013-02-06 03:25:00,
2013-02-05 22:30:00,26.8,19.0,29.66,ESE,103,0.0,0.0,72,0.00,,,0.00,WXlink_for_OpenVMS,2013-02-06 03:30:00,
2013-02-05 22:35:00,26.8,19.0,29.66,ESE,103,0.0,0.0,73,0.00,,,0.00,WXlink_for_OpenVMS,2013-02-06 03:35:00,
2013-02-05 22:40:00,26.8,19.0,29.66,ESE,103,0.0,0.0,73,0.00,,,0.00,WXlink_for_OpenVMS,2013-02-06 03:40:00,
2013-02-05 22:45:00,26.8,19.0,29.66,ESE,103,0.0,0.0,73,0.00,,,0.00,WXlink_for_OpenVMS,2013-02-06 03:45:00,
2013-02-05 22:51:00,26.8,20.0,29.66,ESE,103,0.0,0.0,74,0.00,,,0.00,WXlink_for_OpenVMS,2013-02-06 03:51:00,
2013-02-05 23:00:00,27.0,20.0,29.66,ESE,103,0.0,0.0,74,0.00,,,0.00,WXlink_for_OpenVMS,2013-02-06 04:00:00,
2013-02-05 23:05:00,27.1,20.0,29.66,ESE,103,0.0,0.0,74,0.00,,,0.00,WXlink_for_OpenVMS,2013-02-06 04:05:00,
2013-02-05 23:15:00,27.0,20.0,29.66,ESE,103,0.0,0.0,75,0.00,,,0.00,WXlink_for_OpenVMS,2013-02-06 04:15:00,
2013-02-05 23:20:00,26.6,20.0,29.66,ESE,103,0.0,0.0,75,0.00,,,0.00,WXlink_for_OpenVMS,2013-02-06 04:20:00,
2013-02-05 23:25:00,26.4,20.0,29.66,ESE,103,0.0,0.0,75,0.00,,,0.00,WXlink_for_OpenVMS,2013-02-06 04:25:00,
2013-02-05 23:30:00,26.6,20.0,29.66,ESE,103,0.0,0.0,75,0.00,,,0.00,WXlink_for_OpenVMS,2013-02-06 04:30:00,
2013-02-05 23:35:00,26.6,20.0,29.66,ESE,103,0.0,0.0,76,0.00,,,0.00,WXlink_for_OpenVMS,2013-02-06 04:35:00,
2013-02-05 23:45:00,26.8,20.0,29.66,ESE,103,0.0,0.0,76,0.00,,,0.00,WXlink_for_OpenVMS,2013-02-06 04:45:00,
2013-02-05 23:50:00,27.0,20.0,29.66,ESE,103,0.0,0.0,76,0.00,,,0.00,WXlink_for_OpenVMS,2013-02-06 04:50:00,
2013-02-05 23:55:00,26.8,20.0,29.66,ESE,103,0.0,0.0,76,0.00,,,0.00,WXlink_for_OpenVMS,2013-02-06 04:55:00,